Find Starlink 33816

NORAD ID: 63677 Int'l Des: 2025-085 Owner: SPXS Country: US Constellation: starlink operational
LEOCIRCULAR

当前视图

正在加载3D地球...

About Starlink 33816

Starlink 33816 (NORAD 63677) is a starlink constellation satellite (v2 mini) launched Apr 28, 2025 by SPXS of US. It operates in LEO, CIRCULAR orbit with a mass of 575.00 kg.

即将过境

Passes for default location (London). Set your location on the main map for personalized predictions.

高度历史

Loading altitude history...

两行轨道根数

1 63677U 25085P 26258.41112190 .00017783 00000-0 65401-3 0 9996
2 63677 42.9996 39.6109 0000892 210.2037 149.8763 15.27588175 77980
Epoch: Sep 15, 2026 • Age: 12 hours

当前状态

高度 482.1 km
远地点 / 近地点 N/A
速度 7.63 km/s
星下点 21.05°N, 124.69°W
发射日期 Apr 28, 2025
运行时间 1.3 years
类型 internet

技术详情

分类 Payload
质量 575.00 kg
干质量 530.00 kg
长度 0.30 m
跨度 29.00 m
形状 ? Box + pan
制造商 SPXS
平台类型 Starlink V2MO
阶段状态 In Orbit
所有者/国家 SPXS/US

Most Searched